Time,TemperatureF,DewpointF,PressureIn,WindDirection,WindDirectionDegrees,WindSpeedMPH,WindSpeedGustMPH,Humidity,HourlyPrecipIn,Conditions,Clouds,dailyrainin,SoftwareType,DateUTC
2013-01-30 00:11:00,36.0,35.0,30.11,North,-999,-999.0,-999.0,97,-99.99,,,-99.99,,2013-01-30 05:11:00,
2013-01-30 00:21:00,36.0,35.0,30.11,North,-999,-999.0,-999.0,97,-99.99,,,-99.99,,2013-01-30 05:21:00,
2013-01-30 00:31:00,36.0,35.0,30.11,North,-999,-999.0,-999.0,97,-99.99,,,-99.99,,2013-01-30 05:31:00,
2013-01-30 00:42:00,36.0,35.0,30.11,North,-999,-999.0,-999.0,97,-99.99,,,-99.99,,2013-01-30 05:42:00,
2013-01-30 00:52:00,36.0,35.0,30.11,North,-999,-999.0,-999.0,97,-99.99,,,-99.99,,2013-01-30 05:52:00,
2013-01-30 01:01:00,36.0,35.0,30.11,North,-999,-999.0,-999.0,97,-99.99,,,-99.99,,2013-01-30 06:01:00,
2013-01-30 01:11:00,36.0,35.0,30.09,North,-999,-999.0,-999.0,97,-99.99,,,-99.99,,2013-01-30 06:11:00,
2013-01-30 01:21:00,36.0,35.0,30.09,North,-999,-999.0,-999.0,97,-99.99,,,-99.99,,2013-01-30 06:21:00,
2013-01-30 01:31:00,36.0,35.0,30.08,North,-999,-999.0,-999.0,97,-99.99,,,-99.99,,2013-01-30 06:31:00,
2013-01-30 01:41:00,36.0,35.0,30.07,North,-999,-999.0,-999.0,97,-99.99,,,-99.99,,2013-01-30 06:41:00,
2013-01-30 01:51:00,36.0,35.0,30.07,North,-999,-999.0,-999.0,97,-99.99,,,-99.99,,2013-01-30 06:51:00,
2013-01-30 02:01:00,36.0,35.0,30.07,North,-999,-999.0,-999.0,97,-99.99,,,-99.99,,2013-01-30 07:01:00,
2013-01-30 02:11:00,36.0,35.0,30.05,North,-999,-999.0,-999.0,97,-99.99,,,-99.99,,2013-01-30 07:11:00,
2013-01-30 02:21:00,36.0,35.0,30.05,North,-999,-999.0,-999.0,97,-99.99,,,-99.99,,2013-01-30 07:21:00,
2013-01-30 02:31:00,36.0,35.0,30.05,North,-999,-999.0,-999.0,97,-99.99,,,-99.99,,2013-01-30 07:31:00,
2013-01-30 02:41:00,36.0,35.0,30.04,North,-999,-999.0,-999.0,97,-99.99,,,-99.99,,2013-01-30 07:41:00,
2013-01-30 02:52:00,36.0,35.0,30.04,North,-999,-999.0,-999.0,97,-99.99,,,-99.99,,2013-01-30 07:52:00,
2013-01-30 03:01:00,36.0,35.0,30.04,North,-999,-999.0,-999.0,97,-99.99,,,-99.99,,2013-01-30 08:01:00,
2013-01-30 03:11:00,36.0,36.0,30.02,North,-999,-999.0,-999.0,97,-99.99,,,-99.99,,2013-01-30 08:11:00,
2013-01-30 03:21:00,36.0,36.0,30.02,North,-999,-999.0,-999.0,97,-99.99,,,-99.99,,2013-01-30 08:21:00,
2013-01-30 03:31:00,36.0,36.0,30.02,North,-999,-999.0,-999.0,97,-99.99,,,-99.99,,2013-01-30 08:31:00,
2013-01-30 03:41:00,36.0,36.0,30.02,North,-999,-999.0,-999.0,97,-99.99,,,-99.99,,2013-01-30 08:41:00,
2013-01-30 03:52:00,36.0,36.0,30.01,North,-999,-999.0,-999.0,97,-99.99,,,-99.99,,2013-01-30 08:52:00,
2013-01-30 04:01:00,36.0,36.0,30.01,North,-999,-999.0,-999.0,97,-99.99,,,-99.99,,2013-01-30 09:01:00,
2013-01-30 04:11:00,36.0,36.0,30.00,North,-999,-999.0,-999.0,97,-99.99,,,-99.99,,2013-01-30 09:11:00,
2013-01-30 04:21:00,36.0,36.0,30.00,North,-999,-999.0,-999.0,97,-99.99,,,-99.99,,2013-01-30 09:21:00,
2013-01-30 04:31:00,36.0,36.0,30.00,North,-999,-999.0,-999.0,97,-99.99,,,-99.99,,2013-01-30 09:31:00,
2013-01-30 04:41:00,37.0,36.0,29.98,North,-999,-999.0,-999.0,97,-99.99,,,-99.99,,2013-01-30 09:41:00,
2013-01-30 04:51:00,37.0,36.0,29.97,North,-999,-999.0,-999.0,97,-99.99,,,-99.99,,2013-01-30 09:51:00,
2013-01-30 05:01:00,37.0,36.0,29.97,North,-999,-999.0,-999.0,97,-99.99,,,-99.99,,2013-01-30 10:01:00,
2013-01-30 05:11:00,37.0,36.0,29.97,North,-999,-999.0,-999.0,97,-99.99,,,-99.99,,2013-01-30 10:11:00,
2013-01-30 05:21:00,37.0,36.0,29.97,North,-999,-999.0,-999.0,97,-99.99,,,-99.99,,2013-01-30 10:21:00,
2013-01-30 05:31:00,37.0,36.0,29.97,North,-999,-999.0,-999.0,97,-99.99,,,-99.99,,2013-01-30 10:31:00,
2013-01-30 05:41:00,37.0,36.0,29.96,North,-999,-999.0,-999.0,97,-99.99,,,-99.99,,2013-01-30 10:41:00,
2013-01-30 05:51:00,37.0,36.0,29.96,North,-999,-999.0,-999.0,97,-99.99,,,-99.99,,2013-01-30 10:51:00,
2013-01-30 06:01:00,37.0,36.0,29.96,North,-999,-999.0,-999.0,97,-99.99,,,-99.99,,2013-01-30 11:01:00,
2013-01-30 06:11:00,37.0,36.0,29.96,North,-999,-999.0,-999.0,97,-99.99,,,-99.99,,2013-01-30 11:11:00,
2013-01-30 06:21:00,37.0,36.0,29.96,North,-999,-999.0,-999.0,97,-99.99,,,-99.99,,2013-01-30 11:21:00,
2013-01-30 06:32:00,37.0,36.0,29.96,North,-999,-999.0,-999.0,97,-99.99,,,-99.99,,2013-01-30 11:32:00,
2013-01-30 06:41:00,37.0,37.0,29.95,North,-999,-999.0,-999.0,98,-99.99,,,-99.99,,2013-01-30 11:41:00,
2013-01-30 06:51:00,37.0,37.0,29.95,North,-999,-999.0,-999.0,97,-99.99,,,-99.99,,2013-01-30 11:51:00,
2013-01-30 07:01:00,37.0,37.0,29.95,North,-999,-999.0,-999.0,97,-99.99,,,-99.99,,2013-01-30 12:01:00,
2013-01-30 07:12:00,37.0,37.0,29.94,North,-999,-999.0,-999.0,98,-99.99,,,-99.99,,2013-01-30 12:12:00,
2013-01-30 07:21:00,37.0,37.0,29.94,North,-999,-999.0,-999.0,98,-99.99,,,-99.99,,2013-01-30 12:21:00,
2013-01-30 07:32:00,37.0,37.0,29.94,North,-999,-999.0,-999.0,98,-99.99,,,-99.99,,2013-01-30 12:32:00,
2013-01-30 07:42:00,40.0,40.0,29.91,North,-999,-999.0,-999.0,98,-99.99,,,-99.99,,2013-01-30 12:42:00,
2013-01-30 08:02:00,40.0,40.0,29.91,North,-999,-999.0,-999.0,98,-99.99,,,-99.99,,2013-01-30 13:02:00,
2013-01-30 08:12:00,45.0,45.0,29.90,North,-999,-999.0,-999.0,99,-99.99,,,-99.99,,2013-01-30 13:12:00,
2013-01-30 08:22:00,45.0,45.0,29.90,North,-999,-999.0,-999.0,99,-99.99,,,-99.99,,2013-01-30 13:22:00,
2013-01-30 08:31:00,45.0,45.0,29.90,North,-999,-999.0,-999.0,99,-99.99,,,-99.99,,2013-01-30 13:31:00,
2013-01-30 08:41:00,45.0,44.0,29.90,North,-999,-999.0,-999.0,99,-99.99,,,-99.99,,2013-01-30 13:41:00,
2013-01-30 08:52:00,43.0,43.0,29.90,North,-999,-999.0,-999.0,99,-99.99,,,-99.99,,2013-01-30 13:52:00,
2013-01-30 09:01:00,43.0,43.0,29.90,North,-999,-999.0,-999.0,99,-99.99,,,-99.99,,2013-01-30 14:01:00,
2013-01-30 09:11:00,43.0,43.0,29.90,North,-999,-999.0,-999.0,99,-99.99,,,-99.99,,2013-01-30 14:11:00,
2013-01-30 09:21:00,43.0,43.0,29.90,North,-999,-999.0,-999.0,99,-99.99,,,-99.99,,2013-01-30 14:21:00,
2013-01-30 09:31:00,43.0,42.0,29.89,North,-999,-999.0,-999.0,99,-99.99,,,-99.99,,2013-01-30 14:31:00,
2013-01-30 09:41:00,42.0,42.0,29.88,North,-999,-999.0,-999.0,99,-99.99,,,-99.99,,2013-01-30 14:41:00,
2013-01-30 09:52:00,41.0,40.0,29.88,North,-999,-999.0,-999.0,99,-99.99,,,-99.99,,2013-01-30 14:52:00,
2013-01-30 10:02:00,41.0,40.0,29.88,North,-999,-999.0,-999.0,99,-99.99,,,-99.99,,2013-01-30 15:02:00,
2013-01-30 10:11:00,42.0,42.0,29.87,North,-999,-999.0,-999.0,100,-99.99,,,-99.99,,2013-01-30 15:11:00,
2013-01-30 10:22:00,42.0,42.0,29.87,North,-999,-999.0,-999.0,100,-99.99,,,-99.99,,2013-01-30 15:22:00,
2013-01-30 10:31:00,42.0,42.0,29.87,North,-999,-999.0,-999.0,100,-99.99,,,-99.99,,2013-01-30 15:31:00,
2013-01-30 10:42:00,44.0,44.0,29.85,North,-999,-999.0,-999.0,100,-99.99,,,-99.99,,2013-01-30 15:42:00,
2013-01-30 10:52:00,44.0,44.0,29.85,North,-999,-999.0,-999.0,100,-99.99,,,-99.99,,2013-01-30 15:52:00,
2013-01-30 11:02:00,44.0,44.0,29.85,North,-999,-999.0,-999.0,100,-99.99,,,-99.99,,2013-01-30 16:02:00,
2013-01-30 11:11:00,45.0,45.0,29.83,North,-999,-999.0,-999.0,100,-99.99,,,-99.99,,2013-01-30 16:11:00,
2013-01-30 11:21:00,45.0,45.0,29.83,North,-999,-999.0,-999.0,100,-99.99,,,-99.99,,2013-01-30 16:21:00,
2013-01-30 11:31:00,45.0,45.0,29.82,North,-999,-999.0,-999.0,100,-99.99,,,-99.99,,2013-01-30 16:31:00,
2013-01-30 11:41:00,45.0,45.0,29.80,North,-999,-999.0,-999.0,99,-99.99,,,-99.99,,2013-01-30 16:41:00,
2013-01-30 11:51:00,45.0,45.0,29.80,North,-999,-999.0,-999.0,99,-99.99,,,-99.99,,2013-01-30 16:51:00,
2013-01-30 12:01:00,45.0,45.0,29.80,North,-999,-999.0,-999.0,99,-99.99,,,-99.99,,2013-01-30 17:01:00,
2013-01-30 12:11:00,45.0,45.0,29.79,North,-999,-999.0,-999.0,100,-99.99,,,-99.99,,2013-01-30 17:11:00,
2013-01-30 12:21:00,45.0,45.0,29.79,North,-999,-999.0,-999.0,100,-99.99,,,-99.99,,2013-01-30 17:21:00,
2013-01-30 12:31:00,43.0,43.0,29.79,North,-999,-999.0,-999.0,99,-99.99,,,-99.99,,2013-01-30 17:31:00,
2013-01-30 12:41:00,44.0,43.0,29.77,North,-999,-999.0,-999.0,99,-99.99,,,-99.99,,2013-01-30 17:41:00,
2013-01-30 12:52:00,44.0,43.0,29.77,North,-999,-999.0,-999.0,99,-99.99,,,-99.99,,2013-01-30 17:52:00,
2013-01-30 13:01:00,44.0,43.0,29.77,North,-999,-999.0,-999.0,99,-99.99,,,-99.99,,2013-01-30 18:01:00,
2013-01-30 13:11:00,48.0,48.0,29.74,North,-999,-999.0,-999.0,100,-99.99,,,-99.99,,2013-01-30 18:11:00,
2013-01-30 13:21:00,48.0,48.0,29.74,North,-999,-999.0,-999.0,100,-99.99,,,-99.99,,2013-01-30 18:21:00,
2013-01-30 13:32:00,48.0,48.0,29.74,North,-999,-999.0,-999.0,100,-99.99,,,-99.99,,2013-01-30 18:32:00,
2013-01-30 13:42:00,47.0,47.0,29.73,North,-999,-999.0,-999.0,99,-99.99,,,-99.99,,2013-01-30 18:42:00,
2013-01-30 13:51:00,47.0,47.0,29.73,North,-999,-999.0,-999.0,99,-99.99,,,-99.99,,2013-01-30 18:51:00,
2013-01-30 14:00:00,48.0,48.0,29.70,North,-999,-999.0,-999.0,99,-99.99,,,-99.99,,2013-01-30 19:00:00,
2013-01-30 14:01:00,47.0,47.0,29.73,North,-999,-999.0,-999.0,99,-99.99,,,-99.99,,2013-01-30 19:01:00,
2013-01-30 14:11:00,49.0,48.0,29.72,North,-999,-999.0,-999.0,99,-99.99,,,-99.99,,2013-01-30 19:11:00,
2013-01-30 14:21:00,49.0,48.0,29.72,North,-999,-999.0,-999.0,99,-99.99,,,-99.99,,2013-01-30 19:21:00,
2013-01-30 14:31:00,48.0,48.0,29.70,North,-999,-999.0,-999.0,99,-99.99,,,-99.99,,2013-01-30 19:31:00,
2013-01-30 14:42:00,48.0,48.0,29.70,North,-999,-999.0,-999.0,99,-99.99,,,-99.99,,2013-01-30 19:42:00,
2013-01-30 14:52:00,48.0,48.0,29.70,North,-999,-999.0,-999.0,99,-99.99,,,-99.99,,2013-01-30 19:52:00,
2013-01-30 15:32:00,50.0,50.0,29.67,North,-999,-999.0,-999.0,99,-99.99,,,-99.99,,2013-01-30 20:32:00,
2013-01-30 15:41:00,50.0,50.0,29.67,North,-999,-999.0,-999.0,99,-99.99,,,-99.99,,2013-01-30 20:41:00,
2013-01-30 16:31:00,50.0,49.0,29.66,North,-999,-999.0,-999.0,98,-99.99,,,-99.99,,2013-01-30 21:31:00,
2013-01-30 16:41:00,50.0,49.0,29.66,North,-999,-999.0,-999.0,98,-99.99,,,-99.99,,2013-01-30 21:41:00,
2013-01-30 17:11:00,50.0,49.0,29.63,North,-999,-999.0,-999.0,97,-99.99,,,-99.99,,2013-01-30 22:11:00,
2013-01-30 17:21:00,50.0,49.0,29.63,North,-999,-999.0,-999.0,97,-99.99,,,-99.99,,2013-01-30 22:21:00,
2013-01-30 17:31:00,49.0,49.0,29.62,North,-999,-999.0,-999.0,97,-99.99,,,-99.99,,2013-01-30 22:31:00,
2013-01-30 17:41:00,49.0,49.0,29.62,North,-999,-999.0,-999.0,97,-99.99,,,-99.99,,2013-01-30 22:41:00,
2013-01-30 17:52:00,49.0,49.0,29.62,North,-999,-999.0,-999.0,97,-99.99,,,-99.99,,2013-01-30 22:52:00,
2013-01-30 18:01:00,49.0,49.0,29.62,North,-999,-999.0,-999.0,97,-99.99,,,-99.99,,2013-01-30 23:01:00,
2013-01-30 18:11:00,50.0,49.0,29.62,North,-999,-999.0,-999.0,97,-99.99,,,-99.99,,2013-01-30 23:11:00,
2013-01-30 18:21:00,50.0,49.0,29.62,North,-999,-999.0,-999.0,97,-99.99,,,-99.99,,2013-01-30 23:21:00,
2013-01-30 18:32:00,50.0,49.0,29.61,North,-999,-999.0,-999.0,97,-99.99,,,-99.99,,2013-01-30 23:32:00,
2013-01-30 18:42:00,51.0,50.0,29.60,North,-999,-999.0,-999.0,97,-99.99,,,-99.99,,2013-01-30 23:42:00,
2013-01-30 18:52:00,51.0,50.0,29.60,North,-999,-999.0,-999.0,97,-99.99,,,-99.99,,2013-01-30 23:52:00,
2013-01-30 19:01:00,51.0,50.0,29.60,North,-999,-999.0,-999.0,97,-99.99,,,-99.99,,2013-01-31 00:01:00,
2013-01-30 19:11:00,45.0,45.0,29.63,North,-999,-999.0,-999.0,96,-99.99,,,-99.99,,2013-01-31 00:11:00,
2013-01-30 19:21:00,45.0,45.0,29.63,North,-999,-999.0,-999.0,96,-99.99,,,-99.99,,2013-01-31 00:21:00,
2013-01-30 19:31:00,44.0,44.0,29.64,North,-999,-999.0,-999.0,97,-99.99,,,-99.99,,2013-01-31 00:31:00,
2013-01-30 19:41:00,44.0,44.0,29.64,North,-999,-999.0,-999.0,97,-99.99,,,-99.99,,2013-01-31 00:41:00,
2013-01-30 19:52:00,44.0,44.0,29.63,North,-999,-999.0,-999.0,97,-99.99,,,-99.99,,2013-01-31 00:52:00,
2013-01-30 20:01:00,44.0,44.0,29.63,North,-999,-999.0,-999.0,97,-99.99,,,-99.99,,2013-01-31 01:01:00,
2013-01-30 20:11:00,44.0,44.0,29.63,North,-999,-999.0,-999.0,97,-99.99,,,-99.99,,2013-01-31 01:11:00,
2013-01-30 20:21:00,44.0,44.0,29.63,North,-999,-999.0,-999.0,97,-99.99,,,-99.99,,2013-01-31 01:21:00,
2013-01-30 20:31:00,45.0,45.0,29.62,North,-999,-999.0,-999.0,97,-99.99,,,-99.99,,2013-01-31 01:31:00,
2013-01-30 20:41:00,48.0,47.0,29.60,North,-999,-999.0,-999.0,97,-99.99,,,-99.99,,2013-01-31 01:41:00,
2013-01-30 20:52:00,48.0,47.0,29.60,North,-999,-999.0,-999.0,97,-99.99,,,-99.99,,2013-01-31 01:52:00,
2013-01-30 21:01:00,48.0,47.0,29.60,North,-999,-999.0,-999.0,97,-99.99,,,-99.99,,2013-01-31 02:01:00,
2013-01-30 21:11:00,48.0,48.0,29.57,North,-999,-999.0,-999.0,98,-99.99,,,-99.99,,2013-01-31 02:11:00,
2013-01-30 21:21:00,48.0,48.0,29.57,North,-999,-999.0,-999.0,98,-99.99,,,-99.99,,2013-01-31 02:21:00,
2013-01-30 21:31:00,49.0,49.0,29.56,North,-999,-999.0,-999.0,98,-99.99,,,-99.99,,2013-01-31 02:31:00,
2013-01-30 21:41:00,49.0,49.0,29.56,North,-999,-999.0,-999.0,98,-99.99,,,-99.99,,2013-01-31 02:41:00,
2013-01-30 21:51:00,49.0,49.0,29.56,North,-999,-999.0,-999.0,98,-99.99,,,-99.99,,2013-01-31 02:51:00,
2013-01-30 22:01:00,46.0,46.0,29.55,North,-999,-999.0,-999.0,98,-99.99,,,-99.99,,2013-01-31 03:01:00,
2013-01-30 22:11:00,51.0,51.0,29.54,North,-999,-999.0,-999.0,98,-99.99,,,-99.99,,2013-01-31 03:11:00,
2013-01-30 22:21:00,51.0,51.0,29.54,North,-999,-999.0,-999.0,98,-99.99,,,-99.99,,2013-01-31 03:21:00,
2013-01-30 22:31:00,51.0,51.0,29.53,North,-999,-999.0,-999.0,98,-99.99,,,-99.99,,2013-01-31 03:31:00,
2013-01-30 22:41:00,52.0,51.0,29.49,North,-999,-999.0,-999.0,98,-99.99,,,-99.99,,2013-01-31 03:41:00,
2013-01-30 22:51:00,52.0,51.0,29.48,North,-999,-999.0,-999.0,98,-99.99,,,-99.99,,2013-01-31 03:51:00,
2013-01-30 23:01:00,52.0,51.0,29.48,North,-999,-999.0,-999.0,98,-99.99,,,-99.99,,2013-01-31 04:01:00,
2013-01-30 23:11:00,52.0,52.0,29.46,North,-999,-999.0,-999.0,99,-99.99,,,-99.99,,2013-01-31 04:11:00,
2013-01-30 23:21:00,52.0,52.0,29.46,North,-999,-999.0,-999.0,99,-99.99,,,-99.99,,2013-01-31 04:21:00,
2013-01-30 23:31:00,52.0,52.0,29.46,North,-999,-999.0,-999.0,99,-99.99,,,-99.99,,2013-01-31 04:31:00,
2013-01-30 23:41:00,52.0,52.0,29.43,North,-999,-999.0,-999.0,98,-99.99,,,-99.99,,2013-01-31 04:41:00,
2013-01-30 23:51:00,52.0,52.0,29.42,North,-999,-999.0,-999.0,99,-99.99,,,-99.99,,2013-01-31 04:51:00,